CDG2313 ZUCK-ZHCC

Flight info

Callsign CDG2313
Flight time 1h 25m
Altitude 26600
Route OVNUL W677 IGIRO W4 TAMIX B208 NOPIN
Aircraft B738/M-SDE2E3FGHIRWXY/LB1

Departure

Time 2026-04-28 12:13
Airport Chongqing Jiangbei International Airport (ZUCK)

Arrival

Time 2026-04-28 13:38
Airport Zhengzhou Xinzheng International Airport (ZHCC)
Time Latitude Longitude Altitude Speed Heading
2026-04-28 11:46 29.71100 106.64704 1369 ft 0 kts 129°
2026-04-28 12:03 29.71101 106.64703 1369 ft 1 kts 130°
2026-04-28 12:04 29.71110 106.64691 1369 ft 2 kts 129°
2026-04-28 12:04 29.71120 106.64677 1369 ft 2 kts 129°
2026-04-28 12:04 29.71130 106.64665 1369 ft 2 kts 129°
2026-04-28 12:04 29.71139 106.64651 1369 ft 2 kts 129°
2026-04-28 12:05 29.71149 106.64638 1369 ft 2 kts 129°
2026-04-28 12:05 29.71158 106.64625 1369 ft 2 kts 132°
2026-04-28 12:05 29.71170 106.64614 1369 ft 2 kts 153°
2026-04-28 12:05 29.71185 106.64608 1369 ft 2 kts 169°
2026-04-28 12:06 29.71200 106.64607 1369 ft 2 kts 186°
2026-04-28 12:06 29.71211 106.64610 1369 ft 0 kts 198°
2026-04-28 12:06 29.71217 106.64613 1369 ft 0 kts 201°
2026-04-28 12:08 29.71208 106.64610 1369 ft 4 kts 193°
2026-04-28 12:08 29.71156 106.64593 1369 ft 10 kts 196°
2026-04-28 12:08 29.71088 106.64570 1369 ft 9 kts 196°
2026-04-28 12:08 29.71024 106.64548 1369 ft 9 kts 197°
2026-04-28 12:09 29.70954 106.64524 1369 ft 11 kts 196°
2026-04-28 12:09 29.70859 106.64490 1369 ft 16 kts 197°
2026-04-28 12:09 29.70735 106.64449 1369 ft 19 kts 196°
2026-04-28 12:09 29.70595 106.64399 1369 ft 21 kts 196°
2026-04-28 12:10 29.70472 106.64357 1369 ft 14 kts 196°
2026-04-28 12:10 29.70424 106.64318 1369 ft 7 kts 254°
2026-04-28 12:10 29.70432 106.64260 1369 ft 3 kts 285°
2026-04-28 12:10 29.70432 106.64259 1369 ft 0 kts 285°
2026-04-28 12:11 29.70432 106.64257 1369 ft 0 kts 285°
2026-04-28 12:11 29.70437 106.64239 1369 ft 2 kts 286°
2026-04-28 12:11 29.70441 106.64223 1369 ft 1 kts 286°
2026-04-28 12:11 29.70446 106.64206 1369 ft 4 kts 287°
2026-04-28 12:12 29.70461 106.64148 1369 ft 11 kts 287°
2026-04-28 12:12 29.70496 106.64077 1369 ft 8 kts 350°
2026-04-28 12:12 29.70523 106.64083 1369 ft 0 kts 17°
2026-04-28 12:12 29.70567 106.64099 1369 ft 27 kts 16°
2026-04-28 12:13 29.70994 106.64248 1369 ft 97 kts 16°
2026-04-28 12:13 29.71844 106.64543 1369 ft 154 kts 14°
2026-04-28 12:13 29.72919 106.64915 1843 ft 164 kts 15°
2026-04-28 12:13 29.74015 106.65292 2559 ft 166 kts 17°
2026-04-28 12:14 29.75086 106.65665 3303 ft 157 kts 18°
2026-04-28 12:14 29.76148 106.65999 3681 ft 163 kts 18°
2026-04-28 12:14 29.77265 106.66363 4069 ft 167 kts 19°
2026-04-28 12:14 29.78381 106.66763 4473 ft 171 kts 18°
2026-04-28 12:15 29.79563 106.67183 4822 ft 183 kts 16°
2026-04-28 12:15 29.80840 106.67589 5094 ft 201 kts 16°
2026-04-28 12:15 29.82229 106.68073 5483 ft 214 kts 16°
2026-04-28 12:15 29.83704 106.68589 5840 ft 229 kts 15°
2026-04-28 12:16 29.85302 106.69137 6166 ft 247 kts 15°
2026-04-28 12:16 29.86991 106.69724 6592 ft 262 kts 16°
2026-04-28 12:16 29.88768 106.70335 7110 ft 271 kts 15°
2026-04-28 12:16 29.90623 106.70982 7748 ft 278 kts 17°
2026-04-28 12:17 29.92460 106.71622 8482 ft 279 kts 16°
2026-04-28 12:17 29.94338 106.72278 9264 ft 280 kts 17°
2026-04-28 12:17 29.96184 106.72916 10055 ft 280 kts 18°
2026-04-28 12:17 29.98091 106.73582 10503 ft 294 kts 17°
2026-04-28 12:18 30.00103 106.74298 10899 ft 309 kts 17°
2026-04-28 12:18 30.02214 106.75038 11326 ft 323 kts 17°
2026-04-28 12:18 30.04427 106.75790 11672 ft 340 kts 16°
2026-04-28 12:18 30.06768 106.76594 12057 ft 354 kts 17°
2026-04-28 12:19 30.09162 106.77437 12563 ft 364 kts 16°
2026-04-28 12:19 30.11610 106.78291 13256 ft 368 kts 15°
2026-04-28 12:19 30.14072 106.79145 14101 ft 367 kts 15°
2026-04-28 12:19 30.16560 106.80006 14845 ft 370 kts 15°
2026-04-28 12:20 30.19030 106.80901 15492 ft 375 kts 17°
2026-04-28 12:20 30.21473 106.81993 16018 ft 385 kts 21°
2026-04-28 12:20 30.23941 106.83319 16598 ft 391 kts 24°
2026-04-28 12:20 30.26374 106.84747 17190 ft 396 kts 25°
2026-04-28 12:21 30.28833 106.86237 17763 ft 402 kts 25°
2026-04-28 12:21 30.31324 106.87757 18306 ft 407 kts 25°
2026-04-28 12:21 30.33854 106.89296 18853 ft 412 kts 26°
2026-04-28 12:21 30.36410 106.90838 19443 ft 415 kts 25°
2026-04-28 12:22 30.38985 106.92383 19828 ft 424 kts 25°
2026-04-28 12:22 30.41641 106.93959 20280 ft 431 kts 25°
2026-04-28 12:22 30.44308 106.95547 20710 ft 437 kts 24°
2026-04-28 12:22 30.47052 106.97180 21211 ft 441 kts 24°
2026-04-28 12:23 30.49776 106.98804 21682 ft 445 kts 25°
2026-04-28 12:23 30.52520 107.00435 22185 ft 448 kts 25°
2026-04-28 12:23 30.55329 107.02113 22648 ft 452 kts 25°
2026-04-28 12:23 30.58080 107.03916 22910 ft 463 kts 29°
2026-04-28 12:24 30.60814 107.05989 23376 ft 468 kts 32°
2026-04-28 12:24 30.63466 107.08169 23937 ft 469 kts 33°
2026-04-28 12:24 30.66089 107.10396 24452 ft 471 kts 35°
2026-04-28 12:24 30.68753 107.12685 24849 ft 476 kts 34°
2026-04-28 12:25 30.71411 107.14966 25170 ft 483 kts 35°
2026-04-28 12:25 30.74147 107.17306 25526 ft 489 kts 34°
2026-04-28 12:25 30.76875 107.19631 26013 ft 491 kts 34°
2026-04-28 12:25 30.79647 107.21987 26527 ft 492 kts 34°
2026-04-28 12:26 30.82417 107.24335 26713 ft 487 kts 34°
2026-04-28 12:26 30.85120 107.26618 26712 ft 473 kts 34°
2026-04-28 12:26 30.87740 107.28828 26712 ft 466 kts 34°
2026-04-28 12:26 30.90374 107.31049 26717 ft 468 kts 33°
2026-04-28 12:27 30.93034 107.33289 26715 ft 469 kts 33°
2026-04-28 12:27 30.95700 107.35527 26716 ft 469 kts 33°
2026-04-28 12:27 30.98325 107.37733 26712 ft 468 kts 34°
2026-04-28 12:27 31.00974 107.39960 26717 ft 467 kts 33°
2026-04-28 12:28 31.03632 107.42189 26723 ft 467 kts 33°
2026-04-28 12:28 31.06315 107.44268 26723 ft 468 kts 30°
2026-04-28 12:28 31.09098 107.46195 26721 ft 467 kts 27°
2026-04-28 12:28 31.11969 107.48056 26724 ft 467 kts 26°
2026-04-28 12:29 31.17684 107.51640 26727 ft 466 kts 25°
2026-04-28 12:29 31.20552 107.53439 26727 ft 467 kts 25°
2026-04-28 12:29 31.23428 107.55256 26728 ft 469 kts 26°
2026-04-28 12:30 31.26268 107.57064 26726 ft 468 kts 26°
2026-04-28 12:30 31.29146 107.58906 26725 ft 467 kts 26°
2026-04-28 12:30 31.31996 107.60739 26733 ft 469 kts 26°
2026-04-28 12:30 31.34854 107.62586 26730 ft 468 kts 26°
2026-04-28 12:31 31.37656 107.64405 26732 ft 466 kts 26°
2026-04-28 12:31 31.40524 107.66270 26735 ft 468 kts 26°
2026-04-28 12:31 31.43349 107.68111 26732 ft 467 kts 27°
2026-04-28 12:31 31.46208 107.69975 26736 ft 468 kts 27°
2026-04-28 12:32 31.49048 107.71825 26737 ft 467 kts 26°
2026-04-28 12:32 31.51913 107.73691 26742 ft 469 kts 26°
2026-04-28 12:32 31.54758 107.75544 26737 ft 469 kts 26°
2026-04-28 12:32 31.57593 107.77394 26737 ft 468 kts 26°
2026-04-28 12:33 31.60426 107.79251 26743 ft 470 kts 27°
2026-04-28 12:33 31.63221 107.81304 26744 ft 469 kts 32°
2026-04-28 12:33 31.65866 107.83543 26742 ft 470 kts 36°
2026-04-28 12:33 31.68424 107.85897 26741 ft 473 kts 37°
2026-04-28 12:34 31.70991 107.88359 26743 ft 472 kts 38°
2026-04-28 12:34 31.73514 107.90829 26746 ft 473 kts 38°
2026-04-28 12:34 31.76016 107.93300 26747 ft 473 kts 38°
2026-04-28 12:34 31.78543 107.95794 26749 ft 472 kts 38°
2026-04-28 12:35 31.81056 107.98271 26748 ft 473 kts 38°
2026-04-28 12:35 31.83581 108.00751 26752 ft 475 kts 38°
2026-04-28 12:35 31.86128 108.03247 26752 ft 475 kts 38°
2026-04-28 12:35 31.88648 108.05713 26757 ft 474 kts 38°
2026-04-28 12:36 31.91184 108.08196 26754 ft 473 kts 38°
2026-04-28 12:36 31.93736 108.10693 26753 ft 474 kts 38°
2026-04-28 12:36 31.96249 108.13146 26751 ft 473 kts 38°
2026-04-28 12:36 31.98794 108.15631 26757 ft 472 kts 38°
2026-04-28 12:37 32.01340 108.18114 26757 ft 473 kts 38°
2026-04-28 12:37 32.03874 108.20588 26766 ft 475 kts 38°
2026-04-28 12:37 32.06387 108.23102 26769 ft 474 kts 41°
2026-04-28 12:37 32.08629 108.25884 26770 ft 475 kts 50°
2026-04-28 12:38 32.10418 108.29173 26771 ft 476 kts 64°
2026-04-28 12:38 32.11731 108.32748 26780 ft 476 kts 70°
2026-04-28 12:38 32.12867 108.36396 26789 ft 477 kts 71°
2026-04-28 12:38 32.13935 108.40111 26789 ft 475 kts 72°
2026-04-28 12:39 32.14957 108.43796 26791 ft 474 kts 73°
2026-04-28 12:39 32.15969 108.47488 26799 ft 477 kts 73°
2026-04-28 12:39 32.16990 108.51202 26803 ft 476 kts 73°
2026-04-28 12:39 32.18016 108.54910 26804 ft 476 kts 72°
2026-04-28 12:40 32.19049 108.58613 26803 ft 476 kts 72°
2026-04-28 12:40 32.20099 108.62302 26801 ft 476 kts 71°
2026-04-28 12:40 32.21314 108.65971 26802 ft 478 kts 66°
2026-04-28 12:40 32.22999 108.69334 26804 ft 476 kts 51°
2026-04-28 12:41 32.25290 108.72115 26808 ft 475 kts 37°
2026-04-28 12:41 32.27987 108.74372 26801 ft 472 kts 30°
2026-04-28 12:41 32.30748 108.76410 26800 ft 471 kts 28°
2026-04-28 12:41 32.33553 108.78389 26806 ft 471 kts 27°
2026-04-28 12:42 32.36383 108.80355 26804 ft 469 kts 27°
2026-04-28 12:42 32.39204 108.82312 26799 ft 471 kts 27°
2026-04-28 12:42 32.42013 108.84275 26804 ft 470 kts 27°
2026-04-28 12:42 32.44826 108.86253 26796 ft 471 kts 27°
2026-04-28 12:43 32.47619 108.88230 26808 ft 471 kts 27°
2026-04-28 12:43 32.50449 108.90246 26797 ft 470 kts 28°
2026-04-28 12:43 32.53234 108.92238 26804 ft 470 kts 28°
2026-04-28 12:43 32.56045 108.94257 26808 ft 470 kts 28°
2026-04-28 12:44 32.58826 108.96257 26798 ft 469 kts 28°
2026-04-28 12:44 32.61613 108.98266 26795 ft 470 kts 28°
2026-04-28 12:44 32.64394 109.00272 26792 ft 468 kts 28°
2026-04-28 12:44 32.67195 109.02296 26798 ft 470 kts 28°
2026-04-28 12:45 32.69953 109.04288 26795 ft 470 kts 28°
2026-04-28 12:45 32.72755 109.06316 26789 ft 471 kts 28°
2026-04-28 12:45 32.75559 109.08347 26783 ft 469 kts 28°
2026-04-28 12:45 32.78328 109.10353 26789 ft 469 kts 28°
2026-04-28 12:46 32.81169 109.12414 26784 ft 468 kts 27°
2026-04-28 12:46 32.83944 109.14429 26785 ft 470 kts 27°
2026-04-28 12:46 32.86720 109.16441 26784 ft 469 kts 27°
2026-04-28 12:46 32.89521 109.18478 26776 ft 469 kts 27°
2026-04-28 12:47 32.92283 109.20481 26777 ft 468 kts 28°
2026-04-28 12:47 32.95088 109.22518 26777 ft 469 kts 27°
2026-04-28 12:47 32.97873 109.24540 26778 ft 468 kts 27°
2026-04-28 12:47 33.00633 109.26553 26789 ft 470 kts 27°
2026-04-28 12:48 33.03406 109.28574 26789 ft 469 kts 27°
2026-04-28 12:48 33.06213 109.30625 26787 ft 469 kts 28°
2026-04-28 12:48 33.08964 109.32644 26796 ft 469 kts 27°
2026-04-28 12:48 33.11756 109.34690 26790 ft 470 kts 27°
2026-04-28 12:49 33.14545 109.36734 26799 ft 469 kts 27°
2026-04-28 12:49 33.17304 109.38759 26800 ft 470 kts 27°
2026-04-28 12:49 33.20100 109.40806 26803 ft 470 kts 27°
2026-04-28 12:49 33.22900 109.42857 26803 ft 471 kts 27°
2026-04-28 12:50 33.25667 109.44878 26809 ft 470 kts 27°
2026-04-28 12:50 33.28458 109.46923 26806 ft 469 kts 27°
2026-04-28 12:50 33.31249 109.48972 26799 ft 469 kts 27°
2026-04-28 12:50 33.34015 109.51013 26800 ft 470 kts 28°
2026-04-28 12:51 33.36682 109.53333 26798 ft 474 kts 37°
2026-04-28 12:51 33.38947 109.56149 26794 ft 478 kts 50°
2026-04-28 12:51 33.40698 109.59591 26789 ft 484 kts 64°
2026-04-28 12:51 33.41872 109.63347 26786 ft 482 kts 73°
2026-04-28 12:52 33.42646 109.67227 26792 ft 483 kts 80°
2026-04-28 12:52 33.43173 109.71209 26791 ft 484 kts 84°
2026-04-28 12:52 33.43570 109.75159 26784 ft 481 kts 85°
2026-04-28 12:52 33.43915 109.79120 26784 ft 483 kts 85°
2026-04-28 12:53 33.44252 109.83167 26782 ft 482 kts 85°
2026-04-28 12:53 33.44583 109.87148 26786 ft 482 kts 86°
2026-04-28 12:53 33.44920 109.91120 26787 ft 480 kts 85°
2026-04-28 12:53 33.45148 109.93751 26784 ft 481 kts 85°
2026-04-28 12:54 33.45614 109.99051 26777 ft 482 kts 85°
2026-04-28 12:54 33.45977 110.03059 26789 ft 483 kts 85°
2026-04-28 12:54 33.46342 110.07033 26792 ft 484 kts 85°
2026-04-28 12:54 33.46713 110.11036 26791 ft 482 kts 85°
2026-04-28 12:55 33.47078 110.14981 26790 ft 483 kts 85°
2026-04-28 12:55 33.47455 110.19016 26792 ft 483 kts 84°
2026-04-28 12:55 33.47834 110.22984 26787 ft 483 kts 84°
2026-04-28 12:55 33.48211 110.26949 26787 ft 484 kts 85°
2026-04-28 12:56 33.48597 110.30948 26789 ft 483 kts 84°
2026-04-28 12:56 33.48975 110.34921 26789 ft 484 kts 84°
2026-04-28 12:56 33.49394 110.38941 26784 ft 485 kts 82°
2026-04-28 12:56 33.50105 110.42859 26785 ft 484 kts 72°
2026-04-28 12:57 33.51464 110.46520 26789 ft 484 kts 57°
2026-04-28 12:57 33.53505 110.49725 26792 ft 479 kts 43°
2026-04-28 12:57 33.55985 110.52363 26798 ft 479 kts 33°
2026-04-28 12:57 33.58698 110.54653 26794 ft 473 kts 27°
2026-04-28 12:58 33.61533 110.56606 26794 ft 467 kts 22°
2026-04-28 12:58 33.64413 110.58313 26799 ft 467 kts 20°
2026-04-28 12:58 33.67382 110.59947 26793 ft 468 kts 18°
2026-04-28 12:58 33.70378 110.61568 26793 ft 470 kts 18°
2026-04-28 12:59 33.73355 110.63175 26802 ft 467 kts 18°
2026-04-28 12:59 33.76314 110.64781 26804 ft 467 kts 18°
2026-04-28 12:59 33.79262 110.66402 26798 ft 467 kts 19°
2026-04-28 12:59 33.82191 110.68050 26793 ft 467 kts 20°
2026-04-28 13:00 33.85148 110.69742 26792 ft 468 kts 20°
2026-04-28 13:00 33.88116 110.71448 26788 ft 467 kts 20°
2026-04-28 13:00 33.91063 110.73141 26792 ft 470 kts 20°
2026-04-28 13:00 33.94008 110.74837 26791 ft 470 kts 20°
2026-04-28 13:01 33.96938 110.76532 26787 ft 468 kts 20°
2026-04-28 13:01 33.99891 110.78238 26779 ft 468 kts 20°
2026-04-28 13:01 34.02811 110.79923 26786 ft 467 kts 20°
2026-04-28 13:01 34.05750 110.81626 26776 ft 466 kts 20°
2026-04-28 13:02 34.08662 110.83312 26785 ft 468 kts 20°
2026-04-28 13:02 34.11615 110.85030 26788 ft 467 kts 20°
2026-04-28 13:02 34.14519 110.86723 26788 ft 467 kts 20°
2026-04-28 13:02 34.17497 110.88445 26797 ft 472 kts 20°
2026-04-28 13:03 34.20437 110.90145 26788 ft 467 kts 20°
2026-04-28 13:03 34.23365 110.91840 26785 ft 467 kts 19°
2026-04-28 13:03 34.26282 110.93530 26794 ft 467 kts 19°
2026-04-28 13:03 34.29236 110.95248 26787 ft 469 kts 20°
2026-04-28 13:04 34.32127 110.96943 26788 ft 467 kts 20°
2026-04-28 13:04 34.35063 110.98656 26788 ft 467 kts 20°
2026-04-28 13:04 34.37991 111.00369 26791 ft 467 kts 21°
2026-04-28 13:04 34.40837 111.02336 26785 ft 474 kts 28°
2026-04-28 13:05 34.43421 111.04887 26790 ft 484 kts 41°
2026-04-28 13:05 34.45564 111.08062 26793 ft 487 kts 52°
2026-04-28 13:05 34.47428 111.11455 26787 ft 487 kts 54°
2026-04-28 13:05 34.49211 111.14938 26794 ft 488 kts 56°
2026-04-28 13:06 34.50983 111.18504 26795 ft 490 kts 56°
2026-04-28 13:06 34.52704 111.22015 26795 ft 490 kts 56°
2026-04-28 13:06 34.54467 111.25600 26795 ft 491 kts 57°
2026-04-28 13:06 34.56200 111.29118 26793 ft 490 kts 56°
2026-04-28 13:07 34.57964 111.32674 26789 ft 490 kts 56°
2026-04-28 13:07 34.59717 111.36192 26790 ft 491 kts 56°
2026-04-28 13:07 34.61486 111.39732 26786 ft 490 kts 56°
2026-04-28 13:07 34.62671 111.42099 26786 ft 491 kts 56°
2026-04-28 13:08 34.65032 111.46802 26788 ft 491 kts 56°
2026-04-28 13:08 34.66792 111.50312 26786 ft 490 kts 56°
2026-04-28 13:08 34.68577 111.53881 26785 ft 491 kts 56°
2026-04-28 13:08 34.70350 111.57426 26790 ft 491 kts 56°
2026-04-28 13:09 34.72104 111.60931 26790 ft 490 kts 56°
2026-04-28 13:09 34.73898 111.64508 26786 ft 490 kts 56°
2026-04-28 13:09 34.75645 111.67991 26790 ft 490 kts 56°
2026-04-28 13:09 34.77426 111.71551 26789 ft 492 kts 57°
2026-04-28 13:10 34.79193 111.75098 26790 ft 492 kts 56°
2026-04-28 13:10 34.80956 111.78640 26793 ft 491 kts 56°
2026-04-28 13:10 34.82722 111.82192 26791 ft 492 kts 56°
2026-04-28 13:10 34.84486 111.85738 26798 ft 494 kts 56°
2026-04-28 13:11 34.86257 111.89303 26793 ft 491 kts 56°
2026-04-28 13:11 34.88030 111.92867 26804 ft 492 kts 56°
2026-04-28 13:11 34.89795 111.96394 26805 ft 494 kts 56°
2026-04-28 13:11 34.91601 111.99983 26800 ft 494 kts 56°
2026-04-28 13:12 34.93393 112.03540 26800 ft 493 kts 56°
2026-04-28 13:12 34.95189 112.07109 26807 ft 493 kts 56°
2026-04-28 13:12 34.96977 112.10664 26806 ft 494 kts 55°
2026-04-28 13:12 34.98763 112.14217 26809 ft 495 kts 55°
2026-04-28 13:13 35.00547 112.17777 26808 ft 495 kts 56°
2026-04-28 13:13 35.02353 112.21381 26812 ft 494 kts 56°
2026-04-28 13:13 35.04131 112.24927 26805 ft 495 kts 55°
2026-04-28 13:13 35.05926 112.28509 26811 ft 494 kts 56°
2026-04-28 13:14 35.07706 112.32077 26806 ft 495 kts 56°
2026-04-28 13:14 35.09487 112.35656 26805 ft 496 kts 56°
2026-04-28 13:14 35.11282 112.39277 26809 ft 494 kts 55°
2026-04-28 13:14 35.13050 112.42831 26808 ft 494 kts 55°
2026-04-28 13:15 35.14828 112.46410 26819 ft 493 kts 56°
2026-04-28 13:15 35.16593 112.49972 26815 ft 495 kts 56°
2026-04-28 13:15 35.18373 112.53564 26817 ft 495 kts 56°
2026-04-28 13:15 35.20162 112.57166 26811 ft 495 kts 55°
2026-04-28 13:16 35.21948 112.60756 26810 ft 495 kts 55°
2026-04-28 13:16 35.23739 112.64346 26814 ft 496 kts 55°
2026-04-28 13:16 35.25518 112.67902 26813 ft 495 kts 55°
2026-04-28 13:16 35.27334 112.71523 26811 ft 497 kts 56°
2026-04-28 13:17 35.29129 112.75112 26807 ft 494 kts 56°
2026-04-28 13:17 35.30909 112.78667 26807 ft 496 kts 55°
2026-04-28 13:17 35.32706 112.82259 26810 ft 497 kts 56°
2026-04-28 13:17 35.34515 112.85874 26814 ft 498 kts 56°
2026-04-28 13:18 35.36311 112.89462 26815 ft 495 kts 56°
2026-04-28 13:18 35.38113 112.93067 26818 ft 496 kts 55°
2026-04-28 13:18 35.39923 112.96693 26821 ft 498 kts 55°
2026-04-28 13:18 35.41695 113.00258 26819 ft 492 kts 56°
2026-04-28 13:19 35.43465 113.03825 26644 ft 481 kts 56°
2026-04-28 13:19 35.45185 113.07293 26330 ft 473 kts 55°
2026-04-28 13:19 35.46881 113.10719 25881 ft 469 kts 54°
2026-04-28 13:19 35.48549 113.14086 25359 ft 467 kts 54°
2026-04-28 13:20 35.50218 113.17477 24788 ft 466 kts 56°
2026-04-28 13:20 35.51694 113.21043 24182 ft 468 kts 64°
2026-04-28 13:20 35.52623 113.24882 23571 ft 472 kts 78°
2026-04-28 13:20 35.52823 113.28847 22963 ft 472 kts 91°
2026-04-28 13:21 35.52376 113.32836 22332 ft 470 kts 102°
2026-04-28 13:21 35.51496 113.36669 21694 ft 468 kts 110°
2026-04-28 13:21 35.50106 113.40210 21053 ft 463 kts 124°
2026-04-28 13:21 35.48119 113.43254 20432 ft 456 kts 137°
2026-04-28 13:22 35.45715 113.45731 19818 ft 449 kts 147°
2026-04-28 13:22 35.43103 113.47759 19209 ft 442 kts 154°
2026-04-28 13:22 35.40370 113.49382 18614 ft 436 kts 160°
2026-04-28 13:22 35.37575 113.50720 18025 ft 431 kts 163°
2026-04-28 13:23 35.34763 113.51916 17453 ft 426 kts 164°
2026-04-28 13:23 35.31930 113.53072 16860 ft 423 kts 164°
2026-04-28 13:23 35.29160 113.54206 16276 ft 420 kts 163°
2026-04-28 13:23 35.26364 113.55376 15685 ft 417 kts 162°
2026-04-28 13:24 35.23648 113.56541 15104 ft 413 kts 162°
2026-04-28 13:24 35.20965 113.57713 14515 ft 410 kts 161°
2026-04-28 13:24 35.18305 113.58892 13942 ft 407 kts 160°
2026-04-28 13:24 35.15650 113.60076 13354 ft 403 kts 160°
2026-04-28 13:25 35.13023 113.61247 12806 ft 398 kts 160°
2026-04-28 13:25 35.10482 113.62380 12515 ft 386 kts 160°
2026-04-28 13:25 35.07974 113.63496 12393 ft 370 kts 160°
2026-04-28 13:25 35.05607 113.64538 12128 ft 361 kts 160°
2026-04-28 13:26 35.03242 113.65569 11672 ft 357 kts 161°
2026-04-28 13:26 35.00917 113.66573 11219 ft 351 kts 161°
2026-04-28 13:26 34.98684 113.67539 10970 ft 330 kts 161°
2026-04-28 13:26 34.96597 113.68440 10749 ft 311 kts 161°
2026-04-28 13:27 34.94598 113.69306 10486 ft 300 kts 160°
2026-04-28 13:27 34.92633 113.70156 10092 ft 299 kts 160°
2026-04-28 13:27 34.90661 113.71011 9737 ft 298 kts 160°
2026-04-28 13:27 34.88700 113.71765 9379 ft 296 kts 167°
2026-04-28 13:28 34.86662 113.71943 9025 ft 293 kts 191°
2026-04-28 13:28 34.84837 113.71023 8701 ft 286 kts 219°
2026-04-28 13:28 34.83421 113.69331 8345 ft 283 kts 231°
2026-04-28 13:28 34.82147 113.67528 7953 ft 283 kts 231°
2026-04-28 13:29 34.80857 113.65724 7608 ft 282 kts 230°
2026-04-28 13:29 34.79553 113.63965 7259 ft 281 kts 228°
2026-04-28 13:29 34.78233 113.62221 6917 ft 279 kts 227°
2026-04-28 13:29 34.76918 113.60497 6655 ft 275 kts 227°
2026-04-28 13:30 34.75637 113.58818 6456 ft 269 kts 227°
2026-04-28 13:30 34.74371 113.57157 6204 ft 265 kts 227°
2026-04-28 13:30 34.73110 113.55557 5952 ft 261 kts 222°
2026-04-28 13:30 34.71652 113.54280 5703 ft 255 kts 204°
2026-04-28 13:31 34.68581 113.52892 5246 ft 248 kts 197°
2026-04-28 13:31 34.66966 113.52171 5004 ft 245 kts 198°
2026-04-28 13:31 34.65361 113.51627 4771 ft 237 kts 184°
2026-04-28 13:32 34.63788 113.51853 4512 ft 225 kts 154°
2026-04-28 13:32 34.62559 113.52934 4257 ft 213 kts 125°
2026-04-28 13:32 34.61910 113.54489 4012 ft 206 kts 107°
2026-04-28 13:32 34.61448 113.56114 3763 ft 203 kts 108°
2026-04-28 13:33 34.60932 113.57690 3516 ft 200 kts 110°
2026-04-28 13:33 34.60400 113.59222 3286 ft 195 kts 111°
2026-04-28 13:33 34.59883 113.60743 3042 ft 190 kts 111°
2026-04-28 13:33 34.59404 113.62176 2991 ft 178 kts 111°
2026-04-28 13:34 34.58936 113.63557 3000 ft 176 kts 110°
2026-04-28 13:34 34.58461 113.64958 3002 ft 179 kts 110°
2026-04-28 13:34 34.57991 113.66346 3005 ft 177 kts 110°
2026-04-28 13:34 34.57523 113.67721 3004 ft 179 kts 111°
2026-04-28 13:35 34.57058 113.69085 2834 ft 170 kts 111°
2026-04-28 13:35 34.56627 113.70345 2684 ft 152 kts 110°
2026-04-28 13:35 34.56230 113.71522 2395 ft 146 kts 110°
2026-04-28 13:35 34.55852 113.72637 2214 ft 141 kts 111°
2026-04-28 13:36 34.55476 113.73739 2026 ft 143 kts 112°
2026-04-28 13:36 34.55105 113.74837 1833 ft 140 kts 111°
2026-04-28 13:36 34.54733 113.75931 1651 ft 141 kts 111°
2026-04-28 13:36 34.54359 113.77038 1461 ft 141 kts 112°
2026-04-28 13:37 34.53976 113.78133 1275 ft 142 kts 112°
2026-04-28 13:37 34.53604 113.79240 1089 ft 143 kts 112°
2026-04-28 13:37 34.53217 113.80353 912 ft 144 kts 113°
2026-04-28 13:37 34.52826 113.81484 706 ft 147 kts 111°
2026-04-28 13:38 34.52436 113.82647 517 ft 148 kts 112°
2026-04-28 13:38 34.52093 113.83655 497 ft 95 kts 112°
2026-04-28 13:38 34.51921 113.84158 497 ft 50 kts 112°
2026-04-28 13:38 34.51812 113.84485 497 ft 19 kts 112°
2026-04-28 13:39 34.51779 113.84639 497 ft 18 kts 97°
2026-04-28 13:39 34.51782 113.84789 497 ft 17 kts 82°
2026-04-28 13:39 34.51806 113.84895 497 ft 12 kts 55°
2026-04-28 13:39 34.51875 113.84948 496 ft 12 kts 18°
2026-04-28 13:40 34.51960 113.84991 494 ft 13 kts 23°
2026-04-28 13:40 34.52051 113.85036 494 ft 14 kts 22°
2026-04-28 13:40 34.52148 113.85085 494 ft 16 kts 23°
2026-04-28 13:40 34.52264 113.85143 492 ft 18 kts 22°
2026-04-28 13:41 34.52391 113.85205 490 ft 19 kts 22°
2026-04-28 13:41 34.52517 113.85268 488 ft 20 kts 22°
2026-04-28 13:41 34.52625 113.85322 487 ft 13 kts 22°
2026-04-28 13:41 34.52708 113.85363 487 ft 6 kts 22°
2026-04-28 13:42 34.52746 113.85365 487 ft 5 kts 328°
2026-04-28 13:42 34.52766 113.85325 487 ft 5 kts 292°
2026-04-28 13:42 34.52780 113.85284 487 ft 5 kts 292°
2026-04-28 13:42 34.52785 113.85269 487 ft 0 kts 292°